Find Starlink 32835

NORAD ID: 63051 Int'l Des: 2025-034 Owner: SPXS Country: US Constellation: starlink operational
LEOCIRCULAR

Live Position

Loading 3D Globe...

About Starlink 32835

Description loading...

Upcoming Passes

Passes for default location (London). Set your location on the main map for personalized predictions.

Altitude History

Loading altitude history...

Two-Line Element Set

1 63051U 25034Y 26106.37904837 .00013028 00000-0 45119-3 0 9992
2 63051 53.1584 96.1003 0001311 87.2704 272.8447 15.30202732 64678
Epoch: Apr 16, 2026 • Age: 28 hours

Current Status

Altitude 485.3 km
Velocity 7.62 km/s
Sub-Earth Point -31.12°S, 98.71°W
Launch Date Feb 18, 2025
Age 1.1 years
Type internet

Technical Details

Classification Payload
Mass 730.00 kg
Dry Mass 700.00 kg
Total Mass 730.00 kg
Length 0.30 m
Diameter 4.10 m
Span 29.00 m
Shape Box + pan
Manufacturer SPXS
Bus Type Starlink V2M
Phase Status In Orbit
Owner/State SPXS/US

Most Searched